Погода в Ивангороде

Украина / Черниговская область     51°01′52″N   32°27′54″E
темп.,
°C
ветер,
м/с
пор.,
м/с
влажн.,
%
обл.,
%
осадки,
мм/ч
давл.,
гПа
погр.,
м
21 января, пт
пт2123:00−2ююз51096100 1.0 1004335
02:00−1юз51195100 1.1 1003724
05:00−4зюз51191100 0.1 1003421
08:00−5зюз6128993 0.1 1003534
11:00−3юз71293100 0.3 1002934
14:00−3юз91494100 1.0 10021023
17:00−3юз91694100 0.6 1001871
20:00−2зюз81592100 1.1 1002856
22 января, сб
сб2223:00−3зюз7139499 0.2 1003699
02:00−3зюз6129496 0.5 1003478
05:00−4зюз4996100 0.1 1004367
08:00−4зюз4996100 0.4 1006426
11:00−3з579192 0.2 1008551
14:00−3зюз4689100 0.3 1009589
17:00−4юз479796 0.5 1010315
20:00−5ссз479389 1.2 1012287
23 января, вс
вс2323:00−9сз249889 0.0 101471
02:00−11ссз119979 0.1 101612
05:00−9ссв239657 0.1 1017100
08:00−13ссв249868 0.1 102059
11:00−9св349279 0.0 1023182
14:00−7ссв3492100 0.0 1024303
17:00−9ссв369773 0.0 102796
20:00−11св389653 0.0 1030129
24 января, пн
пн2423:00−12св399624 0.0 1031157
02:00−12ссв41195100 0.0 1031193
05:00−11с61493100 0.0 1031300
08:00−10ссв71691100 0.0 1031385
11:00−8ссв61393100 0.2 1031423
14:00−6ссв61093100 0.4 1029395
17:00−8ссв499577 0.0 1031246
20:00−10с489766 0.0 1031155
25 января, вт
вт2523:00−12с379762 0.0 1030116
02:00−13с369653 0.0 103086
05:00−13ссз369655 0.0 102999
08:00−14с249760 0.0 102981
11:00−10с349174 0.0 1027180
14:00−8сз228865 0.0 1025240
17:00−11з229797 0.0 102418
20:00−13юз229761 0.0 102317